Wind_Speed
31 35 36 27 29 31 29 25 22 24 21 25 29 36 42 39 47 61 47 63 70 68 67 61 55 62 63 66 64 65 63 62 60 59 59 60 58 56 54 56 55 54 52 50
36 34 27 32 34 34 33 27 23 23 18 22 26 30 34 34 41 43 54 63 67 69 59 64 60 61 67 69 72 72 68 66 66 66 64 64 63 61 58 58 55 53 52 54
36 27 33 37 33 35 31 23 21 19 16 17 23 29 33 35 36 38 46 52 63 74 61 61 68 51 70 77 73 66 63 66 70 73 70 67 65 62 62 63 63 54 53 55
35 33 39 36 34 31 28 23 21 20 17 15 24 20 22 21 26 35 35 42 43 60 65 56 64 74 55 55 62 71 75 75 75 69 66 63 58 62 64 52 48 49 50 50
36 35 38 36 33 28 24 19 18 19 22 16 23 32 17 22 22 22 33 27 29 33 57 54 57 67 68 64 46 64 70 67 58 60 56 60 41 35 34 41 43 48 48 46
32 34 34 32 30 27 21 19 20 19 20 24 18 21 23 21 31 23 25 25 32 32 35 40 49 66 64 55 53 64 51 50 53 38 35 25 32 37 40 42 43 44 46 47
33 34 37 33 31 28 24 22 18 19 22 24 17 24 23 24 28 23 32 28 25 23 23 38 42 50 47 48 66 37 51 27 25 27 29 31 35 39 43 44 46 47 47 51
27 38 34 34 33 24 26 24 19 19 15 16 19 25 28 37 21 22 21 20 23 20 22 19 21 30 30 35 22 23 23 25 29 31 35 40 44 46 47 48 48 48 51 54
31 26 29 33 35 29 21 29 22 22 25 24 22 21 28 38 19 14 17 20 16 16 19 24 25 23 30 28 27 30 31 32 35 38 43 48 50 52 51 51 53 55 57 55
32 29 28 31 32 38 30 24 27 28 21 26 25 36 20 30 35 29 22 23 22 22 20 21 25 31 32 32 33 34 35 38 42 45 49 51 53 55 56 57 58 57 57 58
36 31 29 32 38 38 35 30 35 27 28 19 18 23 24 25 27 25 24 25 26 27 28 29 31 32 34 37 39 40 42 45 47 50 53 56 56 57 60 58 57 58 60 63
26 25 29 23 19 32 33 34 24 27 31 32 28 23 29 21 32 22 26 27 28 28 29 31 32 36 38 41 44 45 47 48 49 49 51 52 51 52 55 57 58 62 63 65
31 32 30 31 27 19 33 37 40 36 35 24 27 21 35 25 22 18 24 24 28 29 31 33 34 36 38 40 43 44 43 46 46 47 49 51 53 55 57 60 62 62 60 62
39 31 29 26 25 21 21 23 36 33 35 25 33 34 29 35 33 34 30 29 33 34 35 35 36 37 40 42 43 46 46 49 49 49 51 52 52 51 53 54 56 57 58 60
35 29 28 30 27 22 20 18 19 20 23 27 28 31 30 33 30 38 28 31 33 36 38 37 37 40 40 40 41 45 44 44 42 43 44 46 49 50 51 51 53 56 59 62
33 29 29 26 27 16 22 15 17 15 16 19 27 24 22 20 19 20 23 26 27 26 22 24 27 28 28 29 32 33 35 36 37 40 41 44 46 49 51 54 57 60 62 64
27 33 30 23 21 20 24 18 18 22 22 20 19 21 26 23 23 26 25 25 26 25 25 27 29 31 31 32 33 33 34 36 38 40 42 44 46 50 53 55 57 58 56 57
39 31 26 22 20 21 25 22 22 20 21 19 25 23 22 25 24 27 26 26 26 28 29 31 31 32 32 33 34 35 36 38 39 41 43 46 47 48 49 49 48 49 52 55
35 32 27 23 21 26 19 17 21 22 21 22 25 22 25 24 26 27 27 27 28 29 31 31 31 31 31 32 32 34 36 37 39 41 42 42 40 40 40 41 46 50 54 57
33 29 25 22 24 21 25 20 23 21 22 23 24 23 22 23 29 25 23 28 27 28 28 28 29 29 30 30 32 33 35 36 36 36 37 34 32 34 38 43 46 51 57 61
31 27 23 23 24 24 18 21 22 21 23 21 21 21 20 23 24 25 24 26 27 28 28 27 28 28 29 30 30 31 31 31 31 30 27 25 30 33 37 43 49 53 60 65
27 25 27 23 25 21 21 21 22 20 20 20 19 19 20 22 24 24 23 23 24 25 25 25 24 25 27 27 28 29 29 27 24 20 21 24 28 32 39 43 48 56 51 50
27 26 24 24 23 19 20 19 20 20 20 20 21 21 22 22 22 23 24 24 25 25 25 24 25 26 27 28 28 28 23 20 17 17 19 22 27 33 38 43 49 44 48 46
23 23 23 22 23 19 20 19 19 20 20 21 22 22 22 22 23 24 25 27 29 26 25 26 26 27 26 27 25 22 19 15 13 17 19 22 27 32 37 43 41 37 39 33
26 25 24 25 21 23 23 22 20 20 21 21 22 22 22 22 24 24 25 30 31 27 27 28 27 26 24 23 21 17 11 12 14 15 17 21 27 30 38 40 32 30 33 26
20 23 23 23 24 25 22 20 20 20 21 21 22 22 21 21 21 24 29 31 29 27 28 28 23 22 21 18 12 10 10 10 10 12 16 21 25 29 36 34 28 25 30 21
Wind_Direction
246 240 237 235 236 231 228 238 252 259 244 258 264 264 254 244 240 236 231 235 235 238 237 231 235 245 228 219 218 223 232 236 241 241 245 250 250 251 255 257 259 265 269 270
240 242 236 231 230 235 237 238 244 254 251 261 259 265 253 246 239 235 232 234 232 235 234 223 232 230 238 238 220 235 237 235 241 240 240 243 244 247 251 253 257 262 265 268
245 236 227 229 228 233 240 239 242 252 248 251 268 267 255 250 243 235 236 241 239 239 242 236 231 238 236 233 237 242 239 253 244 245 242 239 240 244 247 250 254 260 267 272
236 224 227 228 226 231 239 240 239 236 230 254 253 265 265 257 247 232 235 238 242 242 241 238 236 233 231 241 250 250 251 252 241 237 237 242 244 243 245 253 260 263 270 272
234 221 226 226 228 230 235 230 251 243 241 234 256 271 216 241 235 230 235 231 230 235 245 244 236 240 241 244 264 248 242 237 235 239 235 240 257 263 265 269 267 269 271 272
228 223 224 226 225 225 225 216 226 245 251 252 244 263 274 261 203 225 229 212 215 225 240 239 238 236 246 253 257 237 236 241 250 254 251 260 264 265 264 266 268 269 271 274
221 222 222 219 217 216 214 212 227 235 239 252 240 257 262 263 226 197 201 215 203 205 213 230 228 232 240 242 234 242 237 246 253 261 258 257 262 263 266 267 269 272 273 271
229 217 220 217 218 209 218 217 208 224 238 252 247 216 243 259 265 188 193 213 205 207 207 199 208 210 218 224 249 238 242 243 247 251 254 257 259 263 267 269 273 268 266 266
208 219 225 216 216 188 218 210 198 234 215 229 211 232 228 246 278 250 241 227 224 228 212 198 195 205 221 225 233 233 235 244 249 255 256 258 261 263 268 271 270 270 270 271
221 207 207 220 216 209 199 193 212 220 246 212 229 207 226 248 259 254 240 232 236 237 236 228 215 214 223 227 234 240 243 247 250 251 257 260 261 264 266 269 271 272 273 273
215 197 204 216 224 208 204 217 202 205 223 241 250 247 216 202 244 246 241 233 238 240 243 241 241 238 236 238 240 243 248 251 253 256 258 260 260 263 267 269 270 271 271 272
204 207 208 216 230 207 202 211 225 203 220 217 214 240 253 210 227 238 252 243 241 246 244 243 240 243 242 246 247 246 250 254 256 259 261 264 266 267 269 270 271 273 276 279
187 201 207 215 213 223 218 212 210 219 215 232 220 231 242 247 265 252 253 250 246 242 240 240 240 241 242 244 249 251 254 259 259 261 265 267 269 271 272 273 274 274 276 277
188 204 205 205 220 224 218 217 222 220 216 219 227 215 227 241 254 252 251 251 248 245 246 245 247 246 248 250 251 254 254 256 259 261 265 267 269 272 273 275 277 279 280 282
191 190 197 204 208 203 197 207 213 216 228 237 232 251 254 233 246 248 253 250 254 249 247 248 249 249 249 253 255 257 258 260 264 266 268 270 271 273 275 279 281 283 283 282
195 201 208 217 216 218 197 197 212 214 211 227 214 230 237 243 251 247 250 253 254 251 247 252 251 254 256 255 256 259 261 265 268 270 272 272 276 279 281 282 282 282 284 285
183 209 211 213 209 216 221 210 227 221 219 222 225 222 237 234 245 246 248 251 257 266 264 262 262 262 263 265 266 269 271 270 270 271 274 277 278 280 282 285 289 291 292 291
198 202 202 200 196 198 212 211 224 229 229 225 236 243 245 246 247 253 258 262 264 268 270 270 270 271 272 273 274 274 274 274 276 278 279 280 284 290 295 294 294 296 296 295
207 205 195 203 197 215 214 212 217 226 228 232 239 240 245 253 254 256 263 270 271 272 272 273 274 274 275 276 277 277 277 278 280 283 287 291 296 293 294 297 297 296 297 298
196 191 195 203 211 213 224 217 227 230 235 237 240 244 248 250 259 264 267 270 275 277 278 279 278 278 279 279 278 279 280 283 287 290 293 292 292 296 298 300 303 303 300 299
187 190 198 207 207 218 219 218 226 230 241 238 246 251 252 261 267 273 276 278 280 281 281 282 282 282 281 279 277 277 280 282 285 285 287 292 296 301 304 303 302 305 304 306
189 190 203 204 213 218 220 223 229 240 246 252 253 254 256 260 268 276 283 288 291 289 286 280 275 273 273 272 271 272 276 277 278 281 286 296 301 303 304 310 311 310 316 318
191 196 204 208 216 221 228 231 236 243 249 253 254 254 258 263 269 277 287 295 301 293 282 275 273 274 275 273 273 273 273 270 263 275 291 294 300 309 314 317 320 327 330 326
201 206 213 216 223 227 234 237 242 249 252 254 256 259 262 267 272 281 291 301 306 293 283 277 275 276 271 268 265 261 251 244 268 282 289 301 311 320 323 326 330 338 343 355
212 213 218 227 229 233 237 244 250 253 254 257 259 262 266 270 274 283 291 295 296 284 279 277 278 274 264 259 249 225 230 256 275 293 307 312 317 327 332 333 335 340 341 345
206 215 223 227 229 232 239 246 253 256 259 261 264 266 269 276 281 287 289 292 288 282 280 280 269 265 258 236 194 214 244 262 294 309 310 315 326 336 339 337 339 342 340 343
Height
5707 5708 5711 5719 5721 5722 5723 5724 5727 5727 5729 5728 5727 5727 5729 5733 5734 5742 5753 5759 5762 5766 5771 5781 5784 5790 5796 5793 5795 5796 5804 5810 5814 5816 5819 5822 5825 5827 5829 5830 5832 5834 5834 5833
5696 5698 5708 5708 5710 5713 5715 5716 5719 5721 5722 5722 5721 5720 5722 5723 5726 5731 5739 5743 5751 5755 5761 5767 5768 5779 5786 5791 5776 5789 5793 5799 5802 5805 5808 5810 5813 5816 5820 5821 5823 5824 5823 5823
5687 5695 5696 5697 5701 5705 5709 5711 5712 5715 5718 5716 5718 5716 5717 5716 5716 5722 5727 5731 5739 5746 5753 5757 5764 5770 5779 5770 5771 5788 5791 5792 5792 5794 5797 5800 5803 5806 5808 5810 5811 5815 5815 5815
5679 5685 5685 5690 5695 5699 5702 5705 5706 5708 5711 5715 5712 5713 5712 5710 5712 5714 5722 5727 5731 5736 5743 5750 5754 5760 5763 5763 5771 5777 5777 5779 5781 5783 5787 5792 5793 5795 5797 5800 5803 5807 5806 5806
5670 5676 5677 5682 5689 5693 5698 5700 5703 5703 5706 5708 5709 5705 5705 5707 5710 5714 5718 5720 5724 5728 5732 5741 5747 5748 5751 5756 5764 5770 5768 5771 5775 5775 5779 5782 5783 5786 5790 5792 5794 5795 5796 5795
5664 5668 5671 5677 5683 5687 5692 5696 5700 5702 5705 5704 5705 5704 5698 5699 5701 5712 5715 5718 5718 5721 5725 5730 5735 5739 5745 5753 5755 5759 5759 5764 5768 5769 5771 5776 5780 5781 5782 5783 5785 5784 5783 5784
5656 5660 5664 5670 5675 5681 5684 5691 5696 5699 5700 5701 5704 5700 5702 5694 5700 5701 5704 5712 5715 5716 5717 5721 5728 5733 5740 5745 5746 5746 5750 5756 5762 5766 5768 5771 5774 5774 5773 5775 5773 5775 5775 5772
5648 5652 5658 5663 5670 5678 5682 5687 5692 5695 5698 5699 5700 5700 5701 5692 5686 5696 5703 5708 5710 5712 5713 5715 5719 5724 5730 5736 5737 5741 5750 5754 5756 5759 5762 5765 5765 5764 5764 5765 5767 5764 5762 5760
5645 5651 5655 5657 5664 5673 5678 5679 5688 5689 5691 5691 5695 5698 5696 5691 5689 5697 5701 5705 5706 5708 5711 5714 5717 5721 5726 5731 5736 5741 5745 5748 5750 5752 5754 5755 5756 5756 5754 5754 5754 5752 5752 5751
5639 5645 5648 5652 5657 5663 5669 5676 5682 5683 5684 5685 5686 5687 5694 5691 5690 5693 5697 5701 5703 5705 5707 5710 5713 5717 5721 5725 5729 5733 5737 5739 5741 5743 5744 5745 5745 5744 5743 5743 5742 5741 5741 5740
5631 5638 5643 5646 5647 5656 5664 5665 5670 5678 5682 5681 5681 5685 5682 5683 5685 5689 5692 5696 5699 5701 5703 5705 5709 5712 5716 5720 5722 5725 5727 5730 5732 5734 5734 5734 5733 5733 5734 5732 5730 5729 5727 5726
5626 5632 5637 5642 5645 5650 5658 5662 5664 5670 5674 5676 5680 5683 5678 5674 5678 5681 5686 5689 5692 5695 5696 5699 5701 5704 5706 5709 5712 5714 5716 5720 5721 5722 5723 5723 5722 5721 5720 5719 5716 5716 5714 5711
5621 5627 5631 5635 5638 5643 5648 5655 5658 5659 5665 5668 5672 5676 5676 5670 5673 5677 5680 5684 5686 5687 5689 5691 5693 5695 5698 5700 5703 5705 5706 5710 5710 5710 5711 5711 5710 5709 5708 5706 5705 5702 5698 5696
5617 5622 5626 5633 5636 5640 5643 5647 5652 5657 5661 5665 5667 5668 5667 5671 5671 5672 5676 5679 5679 5681 5683 5685 5687 5688 5690 5692 5693 5696 5698 5700 5700 5699 5700 5699 5698 5696 5694 5692 5689 5686 5683 5678
5611 5617 5623 5626 5629 5635 5637 5642 5646 5650 5656 5657 5662 5661 5661 5667 5667 5670 5669 5673 5671 5673 5675 5677 5678 5680 5681 5683 5684 5686 5686 5686 5685 5687 5686 5686 5686 5685 5682 5678 5673 5668 5666 5662
5607 5613 5618 5622 5627 5632 5632 5638 5642 5647 5652 5654 5655 5657 5658 5662 5663 5664 5665 5665 5665 5665 5668 5669 5670 5671 5672 5674 5675 5675 5675 5677 5676 5677 5676 5676 5673 5670 5666 5664 5661 5656 5650 5644
5595 5606 5614 5619 5623 5629 5633 5635 5639 5642 5645 5648 5652 5654 5654 5658 5659 5660 5661 5661 5661 5661 5661 5662 5662 5663 5663 5664 5665 5665 5666 5667 5667 5665 5664 5662 5660 5658 5655 5650 5644 5637 5627 5623
5598 5605 5611 5615 5621 5627 5626 5632 5635 5638 5640 5644 5643 5647 5649 5650 5652 5652 5654 5655 5655 5654 5654 5653 5653 5654 5654 5654 5655 5656 5655 5655 5654 5654 5652 5651 5647 5643 5637 5631 5626 5622 5616 5609
5595 5601 5606 5612 5617 5619 5625 5628 5631 5633 5637 5638 5639 5643 5643 5645 5645 5646 5647 5647 5647 5647 5646 5646 5646 5646 5646 5646 5646 5645 5644 5644 5644 5642 5640 5638 5632 5629 5627 5622 5616 5609 5602 5593
5591 5597 5603 5609 5614 5619 5618 5624 5626 5630 5632 5633 5635 5637 5638 5639 5635 5640 5641 5639 5639 5639 5638 5638 5638 5637 5637 5637 5637 5636 5635 5635 5634 5631 5628 5625 5624 5622 5616 5609 5602 5596 5588 5579
5587 5594 5601 5605 5610 5613 5618 5620 5622 5625 5628 5628 5630 5631 5633 5632 5633 5632 5634 5633 5632 5632 5631 5630 5630 5629 5628 5627 5627 5626 5625 5624 5623 5622 5621 5619 5616 5612 5608 5603 5596 5587 5576 5563
5587 5593 5597 5602 5605 5611 5612 5615 5618 5620 5621 5623 5625 5626 5627 5627 5627 5626 5626 5626 5625 5624 5623 5622 5622 5621 5619 5619 5618 5617 5617 5617 5617 5616 5615 5613 5611 5608 5602 5594 5584 5572 5560 5548
5585 5590 5595 5599 5603 5606 5608 5612 5613 5615 5617 5618 5620 5621 5621 5622 5622 5621 5620 5619 5618 5616 5615 5614 5612 5611 5610 5610 5610 5610 5611 5611 5612 5612 5611 5609 5606 5599 5592 5584 5571 5560 5548 5536
5583 5588 5591 5596 5597 5601 5604 5607 5609 5611 5612 5613 5615 5616 5616 5616 5616 5615 5614 5612 5611 5608 5607 5606 5605 5604 5603 5603 5603 5605 5606 5607 5607 5607 5606 5603 5598 5591 5584 5574 5563 5554 5544 5533
5582 5586 5588 5591 5595 5597 5600 5603 5605 5607 5608 5609 5610 5611 5610 5610 5610 5609 5608 5606 5604 5602 5601 5599 5597 5596 5596 5597 5598 5599 5602 5603 5603 5602 5599 5596 5592 5586 5577 5567 5558 5550 5543 5534
5579 5584 5587 5589 5592 5594 5597 5599 5601 5602 5603 5604 5605 5605 5604 5604 5604 5603 5601 5598 5596 5594 5593 5591 5590 5590 5591 5591 5594 5597 5599 5599 5598 5596 5595 5592 5587 5580 5572 5562 5554 5548 5541 5533